Flag for U.S.A. Weather past 2 weeks in Anderson, South Carolina, U.S.A.

Now
39 °F

Light rain. Fog.


Feels Like: 35 °F
Forecast: 34 / 45 °F
Wind: 6 mph from Northeast

Location: Anderson County Airport

Current Time: Mar 1, 2015 at 11:40:54 AM

Latest Report: Mar 1, 2015 at 10:56 AM


Visibility: 6 mi

Pressure: 30.52 "Hg

Humidity: 89%

Dew point: 36 °F

Location of AndersonLocation

Historic Weather in Anderson — Graph

°F

Anderson temperature yesterday

Maximum temperature yesterday: 47 °F (at 2:56 PM)
Minimum temperature yesterday: 34 °F (at 6:56 AM)
Average temperature yesterday: 40 °F

Past Weeks' High & Low Weather Summary

 TemperatureHumidityPressure
High57 °F (Feb 14, 2:56 PM)100% (Feb 17, 11:56 AM)30.68 "Hg (Feb 17, 11:56 AM)
Low10 °F (Feb 20, 3:56 AM)15% (Feb 15, 3:56 PM)29.68 "Hg (Feb 26, 2:56 AM)
Average36 °F64%30.15 "Hg
* Reported Feb 14 9:56 AM — Mar 1 9:56 AM, Anderson, Weather by CustomWeather, © 2015

Note: Actual official high and low records may vary slightly from our data, if they occured in-between our weather recording intervals... More about our weather records

Advertising

Anderson weather history for previous 24 hours

 ConditionsComfort  
Time TempWeatherWind HumidityBarometerVisibility
9:56 AM
Sun, Mar 1
37 °FLight rain. Fog.8 mph93%30.53 "Hg4 mi
8:56 AM36 °FFog.6 mph92%30.55 "Hg5 mi
7:56 AM34 °FLight rain. Fog.8 mph92%30.54 "Hg3 mi
6:56 AM34 °FLight rain. Fog.5 mph88%30.54 "Hg6 mi
5:56 AM34 °FLight rain. Fog.3 mph88%30.55 "Hg4 mi
4:56 AM34 °FOvercast.8 mph88%30.54 "Hg9 mi
3:56 AM34 °FMostly cloudy.9 mph85%30.56 "Hg10 mi
2:56 AM35 °FLight rain. Overcast.8 mph78%30.59 "Hg8 mi
1:56 AM36 °FLight rain. Mostly cloudy.9 mph75%30.60 "Hg10 mi
12:56 AM39 °FOvercast.10 mph53%30.60 "Hg10 mi
11:56 PM
Sat, Feb 28
40 °FOvercast.8 mph53%30.63 "Hg10 mi
10:56 PM40 °FOvercast.7 mph51%30.63 "Hg10 mi
9:56 PM40 °FOvercast.7 mph51%30.63 "Hg10 mi
8:56 PM40 °FPassing clouds.9 mph49%30.62 "Hg10 mi
7:56 PM41 °FPassing clouds.9 mph51%30.61 "Hg10 mi
6:56 PM42 °FPassing clouds.8 mph49%30.59 "Hg10 mi
5:56 PM44 °FSunny.10 mph43%30.58 "Hg10 mi
4:56 PM46 °FSunny.13 mph40%30.57 "Hg10 mi
3:56 PM47 °FSunny.10 mph39%30.56 "Hg10 mi
2:56 PM47 °FSunny.12 mph37%30.58 "Hg10 mi
1:56 PM46 °FPartly sunny.9 mph35%30.60 "Hg10 mi
12:56 PM45 °FPartly sunny.7 mph35%30.63 "Hg10 mi
11:56 AM42 °FSunny.12 mph38%30.67 "Hg10 mi
Weather by CustomWeather, © 2015

See weather overviewHow to use our weather pages